When you browse on this site, cookies collect data to enhance your experience and personalize the content and advertising you see.
Visit our Privacy Policy to learn more. By continuing to use the site, you agree to this use of cookies and data.
  • In Spain
  • List of Countries
  • For 7 days
  • Water Temperature
  • Weather Map
  • Weather Widgets
  • user-avatar
    Login

    Hourly Weather Balho

    Today, 23 October, Wednesday

    Time Temperature Precipitation Wind Pressure Humidity
    00:00 +30°C° 0 mm 4 mps 736 mmHg 37%
    01:00 +30°C° 0 mm 3 mps 735 mmHg 39%
    02:00 +29°C° 0 mm 3 mps 735 mmHg 41%
    03:00 +29°C° 0 mm 3 mps 735 mmHg 43%
    04:00 +29°C° 0 mm 2 mps 735 mmHg 44%
    05:00 +28°C° 0 mm 2 mps 736 mmHg 46%
    06:00 +28°C° 0 mm 2 mps 736 mmHg 47%
    07:00 +30°C° 0 mm 2 mps 736 mmHg 39%
    08:00 +31°C° 0 mm 3 mps 737 mmHg 31%
    09:00 +34°C° 0 mm 3 mps 737 mmHg 22%
    10:00 +36°C° 0 mm 3 mps 737 mmHg 20%
    11:00 +37°C° 0 mm 4 mps 736 mmHg 17%
    12:00 +38°C° 0 mm 4 mps 736 mmHg 15%
    13:00 +40°C° 0 mm 5 mps 735 mmHg 15%
    14:00 +40°C° 0 mm 5 mps 734 mmHg 15%
    15:00 +40°C° 0 mm 6 mps 734 mmHg 15%
    16:00 +39°C° 0 mm 6 mps 734 mmHg 17%
    17:00 +38°C° 0 mm 7 mps 734 mmHg 18%
    18:00 +35°C° 0 mm 7 mps 734 mmHg 20%
    19:00 +35°C° 0 mm 6 mps 735 mmHg 22%
    20:00 +34°C° 0 mm 6 mps 735 mmHg 23%
    21:00 +33°C° 0 mm 6 mps 736 mmHg 25%
    22:00 +32°C° 0 mm 5 mps 736 mmHg 27%
    23:00 +32°C° 0 mm 4 mps 736 mmHg 29%

    Tomorrow, 24 October, Thursday

    Time Temperature Precipitation Wind Pressure Humidity
    00:00 +30°C° 0 mm 4 mps 736 mmHg 31%
    01:00 +30°C° 0 mm 3 mps 735 mmHg 32%
    02:00 +29°C° 0 mm 3 mps 735 mmHg 34%
    03:00 +29°C° 0 mm 3 mps 735 mmHg 35%
    04:00 +28°C° 0 mm 2 mps 735 mmHg 36%
    05:00 +28°C° 0 mm 2 mps 736 mmHg 37%
    06:00 +28°C° 0 mm 2 mps 736 mmHg 38%
    07:00 +29°C° 0 mm 2 mps 737 mmHg 33%
    08:00 +31°C° 0 mm 2 mps 737 mmHg 28%
    09:00 +34°C° 0 mm 2 mps 738 mmHg 23%
    10:00 +35°C° 0 mm 2 mps 737 mmHg 21%
    11:00 +37°C° 0 mm 3 mps 737 mmHg 19%
    12:00 +38°C° 0 mm 3 mps 736 mmHg 17%
    13:00 +38°C° 0 mm 3 mps 736 mmHg 16%
    14:00 +40°C° 0 mm 4 mps 735 mmHg 16%
    15:00 +41°C° 0 mm 5 mps 735 mmHg 15%
    16:00 +39°C° 0 mm 6 mps 735 mmHg 16%
    17:00 +38°C° 0 mm 6 mps 734 mmHg 18%
    18:00 +36°C° 0 mm 7 mps 734 mmHg 19%
    19:00 +35°C° 0 mm 6 mps 735 mmHg 20%
    20:00 +34°C° 0 mm 6 mps 736 mmHg 22%
    21:00 +33°C° 0 mm 5 mps 736 mmHg 24%
    22:00 +33°C° 0 mm 4 mps 736 mmHg 26%
    23:00 +32°C° 0 mm 4 mps 736 mmHg 28%

    Day after tomorrow, 25 October, Friday

    Time Temperature Precipitation Wind Pressure Humidity
    00:00 +30°C° 0 mm 3 mps 735 mmHg 29%
    01:00 +30°C° 0 mm 3 mps 735 mmHg 31%
    02:00 +29°C° 0 mm 3 mps 735 mmHg 32%
    03:00 +29°C° 0 mm 2 mps 735 mmHg 33%
    04:00 +28°C° 0 mm 2 mps 735 mmHg 34%
    05:00 +28°C° 0 mm 2 mps 735 mmHg 36%
    06:00 +28°C° 0 mm 2 mps 736 mmHg 38%
    07:00 +29°C° 0 mm 2 mps 736 mmHg 33%
    08:00 +31°C° 0 mm 2 mps 737 mmHg 29%
    09:00 +32°C° 0 mm 2 mps 737 mmHg 25%
    10:00 +35°C° 0 mm 2 mps 737 mmHg 23%
    11:00 +35°C° 0 mm 1 mps 736 mmHg 20%
    12:00 +37°C° 0 mm 1 mps 736 mmHg 17%
    13:00 +39°C° 0 mm 1 mps 735 mmHg 16%
    14:00 +39°C° 0 mm 2 mps 734 mmHg 15%
    15:00 +40°C° 0 mm 2 mps 734 mmHg 14%
    16:00 +40°C° 0 mm 4 mps 734 mmHg 15%
    17:00 +37°C° 0 mm 5 mps 734 mmHg 17%
    18:00 +36°C° 0 mm 7 mps 734 mmHg 19%
    19:00 +35°C° 0 mm 6 mps 734 mmHg 21%
    20:00 +34°C° 0 mm 5 mps 735 mmHg 22%
    21:00 +34°C° 0 mm 4 mps 735 mmHg 24%
    22:00 +33°C° 0 mm 4 mps 735 mmHg 25%
    23:00 +32°C° 0 mm 4 mps 735 mmHg 26%

    26 October, Saturday

    Time Temperature Precipitation Wind Pressure Humidity
    00:00 +31°C° 0 mm 3 mps 735 mmHg 27%
    01:00 +30°C° 0 mm 3 mps 735 mmHg 29%
    02:00 +29°C° 0 mm 3 mps 734 mmHg 32%
    03:00 +29°C° 0 mm 3 mps 734 mmHg 34%
    04:00 +28°C° 0 mm 2 mps 735 mmHg 36%
    05:00 +28°C° 0 mm 2 mps 735 mmHg 39%
    06:00 +28°C° 0 mm 2 mps 735 mmHg 42%
    07:00 +29°C° 0 mm 2 mps 736 mmHg 37%
    08:00 +31°C° 0 mm 2 mps 736 mmHg 32%
    09:00 +32°C° 0 mm 2 mps 737 mmHg 27%
    10:00 +35°C° 0 mm 2 mps 736 mmHg 23%
    11:00 +37°C° 0 mm 2 mps 736 mmHg 19%
    12:00 +39°C° 0 mm 2 mps 735 mmHg 14%
    13:00 +40°C° 0 mm 4 mps 735 mmHg 13%
    14:00 +41°C° 0 mm 5 mps 734 mmHg 11%
    15:00 +42°C° 0 mm 6 mps 733 mmHg 10%
    16:00 +40°C° 0 mm 6 mps 733 mmHg 12%
    17:00 +39°C° 0 mm 6 mps 733 mmHg 14%
    18:00 +38°C° 0 mm 6 mps 733 mmHg 16%
    19:00 +36°C° 0 mm 5 mps 734 mmHg 19%
    20:00 +35°C° 0 mm 4 mps 734 mmHg 23%
    21:00 +33°C° 0 mm 3 mps 735 mmHg 26%
    22:00 +33°C° 0 mm 3 mps 734 mmHg 28%
    23:00 +31°C° 0 mm 3 mps 734 mmHg 30%

    27 October, Sunday

    Time Temperature Precipitation Wind Pressure Humidity
    00:00 +30°C° 0 mm 2 mps 734 mmHg 33%
    01:00 +30°C° 0 mm 2 mps 734 mmHg 36%
    02:00 +29°C° 0 mm 2 mps 734 mmHg 39%
    03:00 +28°C° 0 mm 2 mps 733 mmHg 42%
    04:00 +28°C° 0 mm 2 mps 734 mmHg 45%
    05:00 +27°C° 0 mm 2 mps 734 mmHg 48%
    06:00 +27°C° 0 mm 1 mps 735 mmHg 51%
    07:00 +29°C° 0 mm 1 mps 735 mmHg 44%
    08:00 +31°C° 0 mm 2 mps 736 mmHg 38%
    09:00 +32°C° 0 mm 2 mps 736 mmHg 31%
    10:00 +35°C° 0 mm 2 mps 736 mmHg 25%
    11:00 +37°C° 0 mm 2 mps 735 mmHg 20%
    12:00 +38°C° 0 mm 2 mps 735 mmHg 14%
    13:00 +39°C° 0 mm 3 mps 734 mmHg 12%
    14:00 +41°C° 0 mm 4 mps 733 mmHg 11%
    15:00 +41°C° 0 mm 5 mps 732 mmHg 9%
    16:00 +40°C° 0 mm 5 mps 733 mmHg 10%
    17:00 +39°C° 0 mm 6 mps 733 mmHg 11%
    18:00 +38°C° 0 mm 6 mps 733 mmHg 13%
    19:00 +36°C° 0 mm 5 mps 733 mmHg 15%
    20:00 +35°C° 0 mm 4 mps 733 mmHg 18%
    21:00 +33°C° 0 mm 3 mps 734 mmHg 20%
    22:00 +32°C° 0 mm 2 mps 734 mmHg 23%
    23:00 +31°C° 0 mm 2 mps 734 mmHg 26%

    28 October, Monday

    Time Temperature Precipitation Wind Pressure Humidity
    00:00 +30°C° 0 mm 2 mps 733 mmHg 29%
    01:00 +30°C° 0 mm 2 mps 733 mmHg 31%
    02:00 +29°C° 0 mm 2 mps 733 mmHg 34%
    03:00 +28°C° 0 mm 1 mps 733 mmHg 36%
    04:00 +28°C° 0 mm 1 mps 733 mmHg 40%
    05:00 +27°C° 0 mm 1 mps 734 mmHg 43%
    06:00 +27°C° 0 mm 1 mps 734 mmHg 46%
    07:00 +28°C° 0 mm 1 mps 735 mmHg 41%
    08:00 +30°C° 0 mm 1 mps 735 mmHg 36%
    09:00 +32°C° 0 mm 2 mps 736 mmHg 31%
    10:00 +34°C° 0 mm 2 mps 735 mmHg 26%
    11:00 +35°C° 0 mm 1 mps 735 mmHg 22%
    12:00 +37°C° 0 mm 1 mps 735 mmHg 17%
    13:00 +37°C° 0 mm 1 mps 734 mmHg 17%
    14:00 +39°C° 0 mm 1 mps 733 mmHg 16%
    15:00 +40°C° 0 mm 1 mps 733 mmHg 15%
    16:00 +38°C° 0 mm 3 mps 733 mmHg 19%
    17:00 +37°C° 0 mm 4 mps 733 mmHg 22%
    18:00 +36°C° 0 mm 6 mps 733 mmHg 26%
    19:00 +35°C° 0 mm 5 mps 733 mmHg 29%
    20:00 +34°C° 0 mm 4 mps 734 mmHg 32%
    21:00 +33°C° 0 mm 3 mps 734 mmHg 35%
    22:00 +31°C° 0 mm 2 mps 734 mmHg 37%
    23:00 +30°C° 0 mm 2 mps 734 mmHg 39%

    29 October, Tuesday

    Time Temperature Precipitation Wind Pressure Humidity
    00:00 +30°C° 0 mm 2 mps 734 mmHg 42%
    01:00 +29°C° 0 mm 2 mps 733 mmHg 43%
    02:00 +29°C° 0 mm 1 mps 733 mmHg 44%
    03:00 +28°C° 0 mm 1 mps 733 mmHg 46%
    04:00 +28°C° 0 mm 1 mps 734 mmHg 46%
    05:00 +28°C° 0 mm 1 mps 734 mmHg 47%
    06:00 +27°C° 0 mm 1 mps 734 mmHg 47%
    07:00 +29°C° 0 mm 1 mps 735 mmHg 42%
    08:00 +30°C° 0 mm 1 mps 735 mmHg 37%
    09:00 +32°C° 0 mm 1 mps 736 mmHg 32%
    10:00 +33°C° 0 mm 1 mps 735 mmHg 28%
    11:00 +35°C° 0 mm 1 mps 735 mmHg 25%
    12:00 +36°C° 0 mm 1 mps 734 mmHg 21%
    13:00 +37°C° 0 mm 1 mps 734 mmHg 20%
    14:00 +39°C° 0 mm 1 mps 733 mmHg 18%
    15:00 +40°C° 0 mm 2 mps 732 mmHg 16%
    16:00 +39°C° 0 mm 3 mps 733 mmHg 21%
    17:00 +38°C° 0 mm 4 mps 733 mmHg 25%
    18:00 +37°C° 0 mm 5 mps 733 mmHg 30%
    19:00 +35°C° 0 mm 5 mps 733 mmHg 35%
    20:00 +34°C° 0 mm 4 mps 734 mmHg 39%
    21:00 +33°C° 0 mm 4 mps 734 mmHg 44%
    22:00 +31°C° 0 mm 3 mps 734 mmHg 46%
    23:00 +31°C° 0 mm 2 mps 734 mmHg 48%
    Show more